Location: Cactus School
(34.5700°N, 118.0931°W)
Time: 18:12:22
(UTC-08:00)

A-11 Canister half - Pass Details

Date: 24 November 2019
Orbit: 1515 x 1685 km, 47.2° (Epoch: 13 December)

Event Time Altitude Azimuth Distance (km) Brightness Sun altitude
Rises 18:02:00 0° 273° (W) 4,878 13.1 -16.1°
Reaches altitude 10° 18:05:23 10° 280° (W) 3,910 12.2 -16.8°
Maximum altitude 18:14:49 43° 349° (N) 2,239 9.8 -18.6°
Enters shadow 18:21:12 21° 48° (NE) 3,128 10.1 -19.9°
